User: anonymous
Location: Unspecified
(0.0000°N, 0.0000°E)
Time: 00:09:37
(UTC+00:00)
Language:

AUBIESAT-1 - Orbit

View from above orbital plane
View from above orbital plane
View from above satellite
View from above satellite

Ground track
Ground track

The orbit data is extracted from the following two-line orbital elements,

1 37854U 11061E   14241.41384382  .00008545  00000-0  56097-3 0  8790
2 37854 101.7107 308.1324 0212536 201.5169 276.2001 14.91420862153622
Epoch (UTC): 29 August 2014 09:55:56
Eccentricity: 0.0212536
inclination: 101.7107°
perigee height: 445 km
apogee height: 741 km
right ascension of ascending node: 308.1324°
argument of perigee: 201.5169°
revolutions per day: 14.91420862
mean anomaly at epoch: 276.2001°
orbit number at epoch: 15362

The dashed part of the orbit path shows where the satellite is in the earth's shadow,  

DLR